This demonstration page uses our WeatherBlox Daily Observations layout. Learn more.

Left ArrowRight Arrow

41.12389, -100.76542

Hourly Observations for February 26, 2017

Temp ( °F °C ) Dew Point ( °F °C ) Humidity (%) Winds ( mph kmh ) Pressure ( in mb ) Visibility ( mi km ) Precip ( " mm )
12:53 am 00:53 Clear 19 -7.2 13 -10.6 77 77 W 8 13 29.93 1014 10 16 0.00 0.00
1:53 am 01:53 Clear 21 -6.1 13 -10.6 71 71 W 10 17 29.93 1013 10 16 0.00 0.00
2:53 am 02:53 Clear 17 -8.3 11 -11.7 77 77 WNW 7 11 29.93 1013 10 16 0.00 0.00
3:53 am 03:53 Clear 21 -6.1 12 -11.1 68 68 W 9 15 29.92 1013 10 16 0.00 0.00
4:53 am 04:53 Clear 14 -10 9 -12.8 80 80 NW 6 9 29.94 1014 10 16 0.00 0.00
5:53 am 05:53 Clear 12 -11.1 7 -13.9 80 80 NW 6 9 29.95 1014 10 16 0.00 0.00
6:53 am 06:53 Clear 11 -11.7 6 -14.4 81 81 W 7 11 29.98 1015 10 16 0.00 0.00
7:53 am 07:53 Sunny 14 -10 8 -13.3 77 77 W 6 9 29.99 1016 10 16 0.00 0.00
8:53 am 08:53 Sunny 22 -5.6 13 -10.6 68 68 W 8 13 29.98 1015 10 16 0.00 0.00
9:53 am 09:53 Sunny 27 -2.8 13 -10.6 55 55 W 13 20 29.99 1016 10 16 0.00 0.00
10:53 am 10:53 Sunny 31 -0.6 14 -10 49 49 WNW 12 19 30.00 1016 10 16 0.00 0.00
11:53 am 11:53 Sunny 35 1.7 14 -10 42 42 WNW 12 19 30.00 1016 10 16 0.00 0.00
12:53 pm 12:53 Sunny 37 2.8 14 -10 39 39 WNW 14 22 29.98 1015 10 16 0.00 0.00
1:53 pm 13:53 Sunny 38 3.3 13 -10.6 36 36 NW 15 24 29.95 1014 10 16 0.00 0.00
2:53 pm 14:53 Sunny 40 4.4 12 -11.1 32 32 WNW 13 20 29.95 1014 10 16 0.00 0.00
3:53 pm 15:53 Sunny 39 3.9 11 -11.7 31 31 NW 10 17 29.95 1014 10 16 0.00 0.00
4:53 pm 16:53 Sunny 39 3.9 11 -11.7 31 31 WNW 9 15 29.97 1015 10 16 0.00 0.00
5:53 pm 17:53 Sunny 37 2.8 11 -11.7 34 34 WNW 10 17 29.98 1015 10 16 0.00 0.00
6:53 pm 18:53 Clear 28 -2.2 13 -10.6 53 53 NNW 3 6 30.01 1016 10 16 0.00 0.00
7:53 pm 19:53 Clear 22 -5.6 13 -10.6 68 68 Calm 30.02 1017 10 16 0.00 0.00
8:53 pm 20:53 Clear 20 -6.7 13 -10.6 74 74 Calm 30.01 1016 10 16 0.00 0.00
9:53 pm 21:53 Clear 20 -6.7 13 -10.6 74 74 SSE 3 6 30.00 1016 10 16 0.00 0.00
10:53 pm 22:53 Clear 18 -7.8 12 -11.1 77 77 ENE 3 6 30.00 1016 10 16 0.00 0.00
11:53 pm 23:53 Clear 18 -7.8 11 -11.7 74 74 Calm 29.98 1015 10 16 0.00 0.00

Powered by AerisWeather